Weather History for Gulfport, MS

Change the Weather History Date:

Wednesday, January 2, 2013

  Actual Average Record
Temperature  
Mean Temperature 49 °F -  
Max Temperature 54 °F 60 °F 79 °F (2006)
Min Temperature 43 °F 42 °F 20 °F (1979)
Degree Days  
Heating Degree Days 16    
Moisture  
Dew Point 45 °F    
Average Humidity 86    
Maximum Humidity 97    
Minimum Humidity 74    
Precipitation  
Precipitation 0.09 in - - ()
Sea Level Pressure  
Sea Level Pressure 30.12 in    
Wind  
Wind Speed 11 mph (North)    
Max Wind Speed 14 mph    
Max Gust Speed 22 mph    
Visibility 10 miles    
Events Rain    
Averages and records for this station are not official NWS values.
T = Trace of Precipitation, MM = Missing Value Source: NWS Daily Summary

Daily Weather History Graph

Daily Weather History Graph

Search for Another Location

Airport:

Trip Planner

Search our weather history database for the weather conditions in past years. The results will help you decide how hot, cold, wet, or windy it might be!

Date:

Astronomy

Jan. 02, 2013 Rise Set
Actual Time 6:53 AM CST 5:07 PM CST
Civil Twilight 6:27 AM CST 5:34 PM CST
Nautical Twilight 5:57 AM CST 6:03 PM CST
Astronomical Twilight 5:27 AM CST 6:33 PM CST
Moon 10:15 PM CST (1/2) 9:57 AM CST (1/2)
Length of Visible Light 11h 07m
Length of Day
10h 14m
Waning Gibbous, 75% of the Moon is Illuminated
Jan 2
Waning Gibbous
Jan 4
Last Quarter
Jan 11
New
Jan 18
First Quarter
Jan 26
Full

Hourly Weather History & Observations

Time (CST) Temp. Windchill Dew Point Humidity Pressure Visibility Wind Dir Wind Speed Gust Speed Precip Events Conditions
12:53 AM 54.0 °F - 52.0 °F 93% 30.04 in 10.0 mi North 11.5 mph - N/A   Overcast
1:04 AM 53.6 °F - 51.8 °F 94% 30.03 in 10.0 mi North 10.4 mph 18.4 mph N/A   Overcast
1:53 AM 53.1 °F - 51.1 °F 93% 30.04 in 10.0 mi North 12.7 mph - N/A   Overcast
2:34 AM 51.8 °F - 48.2 °F 88% 30.06 in 10.0 mi NNW 13.8 mph 21.9 mph N/A   Overcast
2:53 AM 52.0 °F - 48.9 °F 89% 30.06 in 10.0 mi North 10.4 mph - 0.00 in   Overcast
3:11 AM 51.8 °F - 48.2 °F 88% 30.05 in 10.0 mi North 9.2 mph - N/A   Overcast
3:53 AM 51.1 °F - 48.0 °F 89% 30.06 in 10.0 mi North 9.2 mph - N/A   Overcast
4:00 AM 51.8 °F - 48.2 °F 88% 30.07 in 10.0 mi North 13.8 mph - N/A   Overcast
4:53 AM 50.0 °F - 46.9 °F 89% 30.07 in 10.0 mi North 10.4 mph - N/A   Overcast
5:45 AM 50.0 °F - 46.4 °F 87% 30.08 in 10.0 mi North 11.5 mph - N/A   Overcast
5:53 AM 50.0 °F - 46.9 °F 89% 30.09 in 10.0 mi North 6.9 mph - N/A   Mostly Cloudy
6:53 AM 48.9 °F - 46.0 °F 90% 30.10 in 10.0 mi North 13.8 mph 20.7 mph N/A   Overcast
7:53 AM 48.9 °F - 46.0 °F 90% 30.12 in 10.0 mi North 6.9 mph - N/A   Overcast
8:53 AM 48.9 °F - 46.0 °F 90% 30.15 in 10.0 mi NNW 10.4 mph - N/A   Overcast
9:53 AM 48.9 °F - 45.0 °F 86% 30.17 in 10.0 mi North 9.2 mph - N/A   Overcast
10:53 AM 48.9 °F - 44.1 °F 83% 30.16 in 10.0 mi North 11.5 mph - N/A   Overcast
11:53 AM 50.0 °F - 44.1 °F 80% 30.12 in 10.0 mi North 9.2 mph - N/A   Overcast
12:00 PM 51.8 °F - 44.6 °F 76% 30.11 in 10.0 mi North 9.2 mph - N/A   Overcast
12:53 PM 50.0 °F - 44.1 °F 80% 30.10 in 10.0 mi NNW 11.5 mph - N/A   Overcast
1:53 PM 50.0 °F - 43.0 °F 77% 30.09 in 10.0 mi North 8.1 mph - N/A   Overcast
2:04 PM 50.0 °F - 42.8 °F 76% 30.10 in 10.0 mi North 8.1 mph - N/A   Overcast
2:53 PM 51.1 °F - 43.0 °F 74% 30.11 in 10.0 mi North 10.4 mph - N/A   Overcast
3:53 PM 48.9 °F - 43.0 °F 80% 30.14 in 10.0 mi NNW 8.1 mph - N/A   Overcast
4:53 PM 48.9 °F - 43.0 °F 80% 30.15 in 10.0 mi North 9.2 mph - 0.00 in Rain Light Rain
5:53 PM 48.0 °F - 42.1 °F 80% 30.14 in 10.0 mi North 8.1 mph - 0.00 in   Overcast
6:53 PM 46.9 °F - 42.1 °F 83% 30.15 in 10.0 mi North 10.4 mph - 0.00 in   Overcast
7:53 PM 46.9 °F - 41.0 °F 80% 30.18 in 10.0 mi North 11.5 mph 19.6 mph N/A   Overcast
8:53 PM 46.0 °F 41.4 °F 41.0 °F 83% 30.18 in 9.0 mi North 9.2 mph - 0.00 in Rain Light Rain
9:49 PM 44.6 °F 39.7 °F 42.8 °F 93% 30.20 in 8.0 mi North 9.2 mph - 0.01 in Rain Light Rain
10:53 PM 44.1 °F 38.6 °F 41.0 °F 89% 30.21 in 7.0 mi North 10.4 mph - 0.03 in Rain Light Rain
11:00 PM 44.6 °F 39.2 °F 41.0 °F 87% 30.20 in 7.0 mi North 10.4 mph - 0.01 in Rain Light Rain
11:53 PM 43.0 °F 38.8 °F 42.1 °F 97% 30.20 in 5.0 mi North 6.9 mph - 0.06 in Rain Light Rain